Time,TemperatureF,DewpointF,PressureIn,WindDirection,WindDirectionDegrees,WindSpeedMPH,WindSpeedGustMPH,Humidity,HourlyPrecipIn,Conditions,Clouds,dailyrainin,SoftwareType,DateUTC
2013-02-19 00:02:00,40.0,21.0,29.90,West,270,4.0,6.0,48,0.00,,,0.00,TxWx,2013-02-19 05:02:00,
2013-02-19 00:03:00,40.0,21.0,29.90,NW,315,6.0,7.0,48,0.00,,,0.00,TxWx,2013-02-19 05:03:00,
2013-02-19 00:05:00,40.0,21.0,29.90,NW,315,4.0,8.0,48,0.00,,,0.00,TxWx,2013-02-19 05:05:00,
2013-02-19 00:06:00,40.0,21.0,29.90,West,270,7.0,7.0,48,0.00,,,0.00,TxWx,2013-02-19 05:06:00,
2013-02-19 00:11:00,41.0,22.0,29.89,West,270,8.0,8.0,48,0.00,,,0.00,TxWx,2013-02-19 05:11:00,
2013-02-19 00:14:00,41.0,22.0,29.89,NW,315,11.0,11.0,48,0.00,,,0.00,TxWx,2013-02-19 05:14:00,
2013-02-19 00:16:00,41.0,22.0,29.89,NW,315,7.0,9.0,48,0.00,,,0.00,TxWx,2013-02-19 05:16:00,
2013-02-19 00:19:00,24.0,9.0,30.11,North,0,0.0,1.0,55,0.00,,,0.00,TxWx,2013-02-19 05:19:00,
2013-02-19 00:24:00,24.0,9.0,30.11,WNW,292,1.0,1.0,55,0.00,,,0.00,TxWx,2013-02-19 05:24:00,
2013-02-19 00:29:00,25.0,10.0,30.10,WSW,247,0.0,1.0,55,0.00,,,0.00,TxWx,2013-02-19 05:29:00,
2013-02-19 00:35:00,25.0,10.0,30.10,ENE,67,0.0,0.0,55,0.00,,,0.00,TxWx,2013-02-19 05:35:00,
2013-02-19 00:40:00,25.0,10.0,30.10,ENE,67,0.0,0.0,56,0.00,,,0.00,TxWx,2013-02-19 05:40:00,
2013-02-19 00:46:00,25.0,11.0,30.10,SSW,202,1.0,1.0,56,0.00,,,0.00,TxWx,2013-02-19 05:46:00,
2013-02-19 00:51:00,25.0,11.0,30.10,South,180,1.0,1.0,57,0.00,,,0.00,TxWx,2013-02-19 05:51:00,
2013-02-19 00:56:00,25.0,11.0,30.10,WSW,247,0.0,1.0,57,0.00,,,0.00,TxWx,2013-02-19 05:56:00,
2013-02-19 01:01:00,25.0,11.0,30.09,WSW,247,0.0,0.0,57,0.00,,,0.00,TxWx,2013-02-19 06:01:00,
2013-02-19 01:06:00,25.0,11.0,30.09,North,0,0.0,0.0,57,0.00,,,0.00,TxWx,2013-02-19 06:06:00,
2013-02-19 01:11:00,24.0,10.0,30.09,SW,225,0.0,0.0,58,0.00,,,0.00,TxWx,2013-02-19 06:11:00,
2013-02-19 01:16:00,24.0,10.0,30.09,NNW,337,0.0,0.0,58,0.00,,,0.00,TxWx,2013-02-19 06:16:00,
2013-02-19 01:21:00,24.0,10.0,30.08,NNE,22,1.0,1.0,58,0.00,,,0.00,TxWx,2013-02-19 06:21:00,
2013-02-19 01:26:00,24.0,11.0,30.08,NE,45,0.0,0.0,59,0.00,,,0.00,TxWx,2013-02-19 06:26:00,
2013-02-19 01:31:00,24.0,11.0,30.08,NE,45,0.0,1.0,59,0.00,,,0.00,TxWx,2013-02-19 06:31:00,
2013-02-19 01:36:00,24.0,11.0,30.09,NNE,22,3.0,3.0,59,0.00,,,0.00,TxWx,2013-02-19 06:36:00,
2013-02-19 01:41:00,24.0,11.0,30.09,NW,315,1.0,1.0,59,0.00,,,0.00,TxWx,2013-02-19 06:41:00,
2013-02-19 01:46:00,25.0,12.0,30.09,NE,45,0.0,1.0,59,0.00,,,0.00,TxWx,2013-02-19 06:46:00,
2013-02-19 01:52:00,25.0,11.0,30.09,NNE,22,0.0,1.0,59,0.00,,,0.00,TxWx,2013-02-19 06:52:00,
2013-02-19 01:57:00,26.0,12.0,30.08,WNW,292,0.0,0.0,59,0.00,,,0.00,TxWx,2013-02-19 06:57:00,
2013-02-19 02:02:00,26.0,12.0,30.08,East,90,1.0,1.0,58,0.00,,,0.00,TxWx,2013-02-19 07:02:00,
2013-02-19 02:08:00,26.0,12.0,30.08,South,180,1.0,1.0,58,0.00,,,0.00,TxWx,2013-02-19 07:08:00,
2013-02-19 02:13:00,25.0,11.0,30.07,SE,135,1.0,1.0,59,0.00,,,0.00,TxWx,2013-02-19 07:13:00,
2013-02-19 02:18:00,25.0,12.0,30.07,South,180,1.0,1.0,60,0.00,,,0.00,TxWx,2013-02-19 07:18:00,
2013-02-19 02:23:00,25.0,12.0,30.07,SSE,157,1.0,1.0,61,0.00,,,0.00,TxWx,2013-02-19 07:23:00,
2013-02-19 02:29:00,25.0,12.0,30.06,SE,135,3.0,3.0,61,0.00,,,0.00,TxWx,2013-02-19 07:29:00,
2013-02-19 02:34:00,25.0,13.0,30.07,South,180,3.0,3.0,62,0.00,,,0.00,TxWx,2013-02-19 07:34:00,
2013-02-19 02:39:00,25.0,13.0,30.07,East,90,1.0,1.0,63,0.00,,,0.00,TxWx,2013-02-19 07:39:00,
2013-02-19 02:45:00,25.0,13.0,30.07,ENE,67,1.0,1.0,63,0.00,,,0.00,TxWx,2013-02-19 07:45:00,
2013-02-19 02:50:00,25.0,13.0,30.06,East,90,3.0,3.0,63,0.00,,,0.00,TxWx,2013-02-19 07:50:00,
2013-02-19 02:55:00,25.0,13.0,30.06,SSW,202,1.0,2.0,64,0.00,,,0.00,TxWx,2013-02-19 07:55:00,
2013-02-19 03:00:00,25.0,13.0,30.06,SE,135,2.0,2.0,64,0.00,,,0.00,TxWx,2013-02-19 08:00:00,
2013-02-19 03:05:00,24.0,13.0,30.06,WSW,247,1.0,2.0,64,0.00,,,0.00,TxWx,2013-02-19 08:05:00,
2013-02-19 03:12:00,24.0,13.0,30.06,NW,315,1.0,1.0,64,0.00,,,0.00,TxWx,2013-02-19 08:12:00,
2013-02-19 03:17:00,24.0,13.0,30.06,WSW,247,0.0,0.0,64,0.00,,,0.00,TxWx,2013-02-19 08:17:00,
2013-02-19 03:22:00,24.0,13.0,30.05,NNE,22,1.0,1.0,64,0.00,,,0.00,TxWx,2013-02-19 08:22:00,
2013-02-19 03:27:00,24.0,13.0,30.05,WSW,247,0.0,1.0,65,0.00,,,0.00,TxWx,2013-02-19 08:27:00,
2013-02-19 03:33:00,23.0,12.0,30.05,NNW,337,2.0,3.0,65,0.00,,,0.00,TxWx,2013-02-19 08:33:00,
2013-02-19 03:38:00,23.0,12.0,30.05,North,0,1.0,1.0,65,0.00,,,0.00,TxWx,2013-02-19 08:38:00,
2013-02-19 03:43:00,23.0,12.0,30.05,SW,225,0.0,1.0,65,0.00,,,0.00,TxWx,2013-02-19 08:43:00,
2013-02-19 03:48:00,23.0,12.0,30.04,SSW,202,0.0,0.0,65,0.00,,,0.00,TxWx,2013-02-19 08:48:00,
2013-02-19 03:53:00,23.0,12.0,30.04,SE,135,1.0,1.0,65,0.00,,,0.00,TxWx,2013-02-19 08:53:00,
2013-02-19 03:58:00,23.0,12.0,30.04,SSW,202,1.0,1.0,66,0.00,,,0.00,TxWx,2013-02-19 08:58:00,
2013-02-19 04:03:00,23.0,12.0,30.04,East,90,1.0,1.0,66,0.00,,,0.00,TxWx,2013-02-19 09:03:00,
2013-02-19 04:09:00,23.0,12.0,30.04,WNW,292,1.0,1.0,66,0.00,,,0.00,TxWx,2013-02-19 09:09:00,
2013-02-19 04:14:00,23.0,12.0,30.03,NW,315,0.0,0.0,66,0.00,,,0.00,TxWx,2013-02-19 09:14:00,
2013-02-19 04:19:00,22.0,11.0,30.03,NNE,22,0.0,1.0,66,0.00,,,0.00,TxWx,2013-02-19 09:19:00,
2013-02-19 04:24:00,22.0,11.0,30.03,NNE,22,0.0,0.0,66,0.00,,,0.00,TxWx,2013-02-19 09:24:00,
2013-02-19 04:30:00,22.0,11.0,30.03,WNW,292,0.0,0.0,66,0.00,,,0.00,TxWx,2013-02-19 09:30:00,
2013-02-19 04:35:00,22.0,12.0,30.03,WNW,292,1.0,2.0,67,0.00,,,0.00,TxWx,2013-02-19 09:35:00,
2013-02-19 04:40:00,22.0,12.0,30.03,WNW,292,1.0,1.0,67,0.00,,,0.00,TxWx,2013-02-19 09:40:00,
2013-02-19 04:46:00,22.0,12.0,30.03,NW,315,1.0,1.0,67,0.00,,,0.00,TxWx,2013-02-19 09:46:00,
2013-02-19 04:51:00,22.0,12.0,30.02,NW,315,1.0,1.0,67,0.00,,,0.00,TxWx,2013-02-19 09:51:00,
2013-02-19 04:56:00,22.0,12.0,30.02,North,0,1.0,1.0,67,0.00,,,0.00,TxWx,2013-02-19 09:56:00,
2013-02-19 05:01:00,21.0,11.0,30.02,NNW,337,1.0,1.0,68,0.00,,,0.00,TxWx,2013-02-19 10:01:00,
2013-02-19 05:06:00,22.0,12.0,30.01,NW,315,1.0,1.0,68,0.00,,,0.00,TxWx,2013-02-19 10:06:00,
2013-02-19 05:11:00,22.0,12.0,30.01,NW,315,1.0,1.0,68,0.00,,,0.00,TxWx,2013-02-19 10:11:00,
2013-02-19 05:17:00,22.0,12.0,30.01,WNW,292,1.0,1.0,68,0.00,,,0.00,TxWx,2013-02-19 10:17:00,
2013-02-19 05:22:00,22.0,12.0,30.01,North,0,3.0,3.0,68,0.00,,,0.00,TxWx,2013-02-19 10:22:00,
2013-02-19 05:27:00,22.0,12.0,30.00,NW,315,1.0,1.0,69,0.00,,,0.00,TxWx,2013-02-19 10:27:00,
2013-02-19 05:32:00,23.0,13.0,30.00,NNW,337,1.0,2.0,69,0.00,,,0.00,TxWx,2013-02-19 10:32:00,
2013-02-19 05:37:00,23.0,13.0,29.99,WNW,292,0.0,0.0,69,0.00,,,0.00,TxWx,2013-02-19 10:37:00,
2013-02-19 05:43:00,23.0,13.0,29.99,North,0,0.0,1.0,69,0.00,,,0.00,TxWx,2013-02-19 10:43:00,
2013-02-19 05:48:00,22.0,12.0,29.99,NW,315,0.0,1.0,69,0.00,,,0.00,TxWx,2013-02-19 10:48:00,
2013-02-19 05:53:00,22.0,12.0,29.99,WNW,292,0.0,1.0,69,0.00,,,0.00,TxWx,2013-02-19 10:53:00,
2013-02-19 05:58:00,22.0,12.0,29.98,NW,315,0.0,0.0,69,0.00,,,0.00,TxWx,2013-02-19 10:58:00,
2013-02-19 06:03:00,22.0,12.0,29.98,NW,315,1.0,1.0,69,0.00,,,0.00,TxWx,2013-02-19 11:03:00,
2013-02-19 06:08:00,22.0,12.0,29.98,West,270,1.0,1.0,69,0.00,,,0.00,TxWx,2013-02-19 11:08:00,
2013-02-19 06:13:00,23.0,13.0,29.97,NNW,337,1.0,1.0,69,0.00,,,0.00,TxWx,2013-02-19 11:13:00,
2013-02-19 06:18:00,24.0,14.0,29.97,NW,315,4.0,4.0,70,0.00,,,0.00,TxWx,2013-02-19 11:18:00,
2013-02-19 06:23:00,25.0,15.0,29.97,WNW,292,1.0,1.0,70,0.00,,,0.00,TxWx,2013-02-19 11:23:00,
2013-02-19 06:28:00,25.0,15.0,29.97,NW,315,2.0,2.0,69,0.00,,,0.00,TxWx,2013-02-19 11:28:00,
2013-02-19 06:33:00,25.0,15.0,29.97,NNW,337,2.0,3.0,68,0.00,,,0.00,TxWx,2013-02-19 11:33:00,
2013-02-19 06:38:00,25.0,15.0,29.97,NNW,337,1.0,1.0,68,0.00,,,0.00,TxWx,2013-02-19 11:38:00,
2013-02-19 06:44:00,26.0,16.0,29.97,NW,315,4.0,4.0,68,0.00,,,0.00,TxWx,2013-02-19 11:44:00,
2013-02-19 06:49:00,28.0,17.0,29.97,WNW,292,3.0,4.0,67,0.00,,,0.00,TxWx,2013-02-19 11:49:00,
2013-02-19 06:54:00,29.0,18.0,29.97,NW,315,3.0,3.0,65,0.00,,,0.00,TxWx,2013-02-19 11:54:00,
2013-02-19 06:59:00,29.0,17.0,29.96,NW,315,3.0,3.0,63,0.00,,,0.00,TxWx,2013-02-19 11:59:00,
2013-02-19 07:04:00,30.0,17.0,29.96,NW,315,3.0,4.0,62,0.00,,,0.00,TxWx,2013-02-19 12:04:00,
2013-02-19 07:09:00,30.0,17.0,29.96,NW,315,3.0,5.0,60,0.00,,,0.00,TxWx,2013-02-19 12:09:00,
2013-02-19 07:15:00,30.0,16.0,29.96,WNW,292,6.0,6.0,59,0.00,,,0.00,TxWx,2013-02-19 12:15:00,
2013-02-19 07:20:00,31.0,17.0,29.96,NW,315,5.0,5.0,59,0.00,,,0.00,TxWx,2013-02-19 12:20:00,
2013-02-19 07:25:00,32.0,17.0,29.96,NNW,337,5.0,6.0,57,0.00,,,0.00,TxWx,2013-02-19 12:25:00,
2013-02-19 07:30:00,33.0,18.0,29.96,NW,315,5.0,6.0,55,0.00,,,0.00,TxWx,2013-02-19 12:30:00,
2013-02-19 07:35:00,33.0,17.0,29.96,WNW,292,5.0,6.0,54,0.00,,,0.00,TxWx,2013-02-19 12:35:00,
2013-02-19 07:40:00,34.0,17.0,29.96,WNW,292,8.0,10.0,53,0.00,,,0.00,TxWx,2013-02-19 12:40:00,
2013-02-19 07:45:00,34.0,17.0,29.96,WNW,292,6.0,6.0,52,0.00,,,0.00,TxWx,2013-02-19 12:45:00,
2013-02-19 07:51:00,34.0,17.0,29.96,NW,315,7.0,8.0,51,0.00,,,0.00,TxWx,2013-02-19 12:51:00,
2013-02-19 07:56:00,35.0,17.0,29.96,WNW,292,7.0,7.0,51,0.00,,,0.00,TxWx,2013-02-19 12:56:00,
2013-02-19 08:01:00,35.0,17.0,29.96,WNW,292,8.0,9.0,51,0.00,,,0.00,TxWx,2013-02-19 13:01:00,
2013-02-19 08:06:00,35.0,17.0,29.96,WNW,292,6.0,6.0,50,0.00,,,0.00,TxWx,2013-02-19 13:06:00,
2013-02-19 08:11:00,35.0,17.0,29.96,NW,315,9.0,13.0,50,0.00,,,0.00,TxWx,2013-02-19 13:11:00,
2013-02-19 08:16:00,36.0,18.0,29.96,NW,315,10.0,11.0,50,0.00,,,0.00,TxWx,2013-02-19 13:16:00,
2013-02-19 08:21:00,36.0,18.0,29.96,NW,315,6.0,8.0,50,0.00,,,0.00,TxWx,2013-02-19 13:21:00,
2013-02-19 08:26:00,36.0,18.0,29.96,NW,315,7.0,13.0,50,0.00,,,0.00,TxWx,2013-02-19 13:26:00,
2013-02-19 08:32:00,36.0,18.0,29.95,WNW,292,6.0,7.0,50,0.00,,,0.00,TxWx,2013-02-19 13:32:00,
2013-02-19 08:37:00,37.0,19.0,29.94,NW,315,6.0,6.0,49,0.00,,,0.00,TxWx,2013-02-19 13:37:00,
2013-02-19 08:42:00,37.0,18.0,29.94,WNW,292,6.0,8.0,49,0.00,,,0.00,TxWx,2013-02-19 13:42:00,
2013-02-19 08:47:00,37.0,18.0,29.94,WNW,292,7.0,8.0,48,0.00,,,0.00,TxWx,2013-02-19 13:47:00,
2013-02-19 08:52:00,38.0,19.0,29.94,NNW,337,9.0,13.0,48,0.00,,,0.00,TxWx,2013-02-19 13:52:00,
2013-02-19 08:57:00,38.0,19.0,29.93,WNW,292,6.0,6.0,48,0.00,,,0.00,TxWx,2013-02-19 13:57:00,
2013-02-19 09:02:00,38.0,19.0,29.93,NW,315,18.0,21.0,48,0.00,,,0.00,TxWx,2013-02-19 14:02:00,
2013-02-19 09:07:00,38.0,19.0,29.92,WNW,292,6.0,10.0,48,0.00,,,0.00,TxWx,2013-02-19 14:07:00,
2013-02-19 09:12:00,38.0,19.0,29.92,West,270,9.0,10.0,48,0.00,,,0.00,TxWx,2013-02-19 14:12:00,
2013-02-19 09:17:00,38.0,19.0,29.91,WNW,292,8.0,9.0,48,0.00,,,0.00,TxWx,2013-02-19 14:17:00,
2013-02-19 09:23:00,39.0,20.0,29.92,WNW,292,10.0,10.0,48,0.00,,,0.00,TxWx,2013-02-19 14:23:00,
2013-02-19 09:28:00,39.0,20.0,29.92,WNW,292,9.0,9.0,48,0.00,,,0.00,TxWx,2013-02-19 14:28:00,
2013-02-19 09:33:00,39.0,20.0,29.92,NW,315,11.0,11.0,48,0.00,,,0.00,TxWx,2013-02-19 14:33:00,
2013-02-19 09:38:00,39.0,20.0,29.92,WNW,292,7.0,10.0,48,0.00,,,0.00,TxWx,2013-02-19 14:38:00,
2013-02-19 09:43:00,39.0,20.0,29.93,NW,315,8.0,11.0,48,0.00,,,0.00,TxWx,2013-02-19 14:43:00,
2013-02-19 09:49:00,39.0,20.0,29.92,NW,315,10.0,10.0,48,0.00,,,0.00,TxWx,2013-02-19 14:49:00,
2013-02-19 09:54:00,40.0,21.0,29.91,NNW,337,7.0,8.0,48,0.00,,,0.00,TxWx,2013-02-19 14:54:00,
2013-02-19 09:59:00,40.0,21.0,29.91,WSW,247,8.0,8.0,48,0.00,,,0.00,TxWx,2013-02-19 14:59:00,
2013-02-19 10:04:00,40.0,21.0,29.90,NW,315,11.0,12.0,48,0.00,,,0.00,TxWx,2013-02-19 15:04:00,
2013-02-19 10:10:00,41.0,22.0,29.90,NW,315,12.0,12.0,48,0.00,,,0.00,TxWx,2013-02-19 15:10:00,
2013-02-19 10:15:00,41.0,21.0,29.89,WNW,292,11.0,11.0,47,0.00,,,0.00,TxWx,2013-02-19 15:15:00,
2013-02-19 10:20:00,41.0,22.0,29.89,NW,315,6.0,8.0,48,0.00,,,0.00,TxWx,2013-02-19 15:20:00,
2013-02-19 10:25:00,41.0,22.0,29.89,NW,315,10.0,10.0,48,0.00,,,0.00,TxWx,2013-02-19 15:25:00,
2013-02-19 10:30:00,41.0,21.0,29.88,West,270,6.0,8.0,47,0.00,,,0.00,TxWx,2013-02-19 15:30:00,
2013-02-19 10:35:00,41.0,22.0,29.88,WNW,292,8.0,9.0,48,0.00,,,0.00,TxWx,2013-02-19 15:35:00,
2013-02-19 10:40:00,42.0,22.0,29.88,WNW,292,10.0,10.0,48,0.00,,,0.00,TxWx,2013-02-19 15:40:00,
2013-02-19 10:45:00,42.0,22.0,29.87,NW,315,13.0,13.0,48,0.00,,,0.00,TxWx,2013-02-19 15:45:00,
2013-02-19 10:50:00,42.0,22.0,29.88,WNW,292,9.0,9.0,48,0.00,,,0.00,TxWx,2013-02-19 15:50:00,
2013-02-19 10:56:00,43.0,23.0,29.87,WNW,292,6.0,7.0,48,0.00,,,0.00,TxWx,2013-02-19 15:56:00,
2013-02-19 11:01:00,43.0,23.0,29.86,WNW,292,5.0,8.0,47,0.00,,,0.00,TxWx,2013-02-19 16:01:00,
2013-02-19 11:06:00,44.0,24.0,29.86,WNW,292,4.0,6.0,47,0.00,,,0.00,TxWx,2013-02-19 16:06:00,
2013-02-19 11:11:00,44.0,24.0,29.87,WNW,292,13.0,14.0,47,0.00,,,0.00,TxWx,2013-02-19 16:11:00,
2013-02-19 11:16:00,44.0,24.0,29.86,NW,315,5.0,5.0,46,0.00,,,0.00,TxWx,2013-02-19 16:16:00,
2013-02-19 11:21:00,44.0,24.0,29.86,WNW,292,14.0,14.0,46,0.00,,,0.00,TxWx,2013-02-19 16:21:00,
2013-02-19 11:26:00,44.0,24.0,29.85,WNW,292,10.0,20.0,46,0.00,,,0.00,TxWx,2013-02-19 16:26:00,
2013-02-19 11:31:00,44.0,24.0,29.85,NW,315,10.0,12.0,47,0.00,,,0.00,TxWx,2013-02-19 16:31:00,
2013-02-19 11:37:00,44.0,24.0,29.86,NW,315,9.0,10.0,47,0.00,,,0.00,TxWx,2013-02-19 16:37:00,
2013-02-19 11:42:00,44.0,24.0,29.84,WNW,292,8.0,10.0,47,0.00,,,0.00,TxWx,2013-02-19 16:42:00,
2013-02-19 11:47:00,44.0,24.0,29.83,WNW,292,5.0,5.0,47,0.00,,,0.00,TxWx,2013-02-19 16:47:00,
2013-02-19 11:52:00,44.0,24.0,29.83,West,270,6.0,7.0,47,0.00,,,0.00,TxWx,2013-02-19 16:52:00,
2013-02-19 11:58:00,44.0,24.0,29.82,NNW,337,5.0,7.0,47,0.00,,,0.00,TxWx,2013-02-19 16:58:00,
2013-02-19 12:03:00,44.0,24.0,29.82,NW,315,6.0,6.0,47,0.00,,,0.00,TxWx,2013-02-19 17:03:00,
2013-02-19 12:08:00,44.0,24.0,29.82,NNW,337,5.0,6.0,47,0.00,,,0.00,TxWx,2013-02-19 17:08:00,
2013-02-19 12:13:00,44.0,24.0,29.81,WNW,292,6.0,7.0,47,0.00,,,0.00,TxWx,2013-02-19 17:13:00,
2013-02-19 12:18:00,45.0,25.0,29.81,NW,315,4.0,5.0,47,0.00,,,0.00,TxWx,2013-02-19 17:18:00,
2013-02-19 12:24:00,44.0,24.0,29.80,NW,315,8.0,11.0,47,0.00,,,0.00,TxWx,2013-02-19 17:24:00,
2013-02-19 12:29:00,44.0,24.0,29.81,NNW,337,6.0,11.0,47,0.00,,,0.00,TxWx,2013-02-19 17:29:00,
2013-02-19 12:34:00,45.0,25.0,29.81,NW,315,5.0,6.0,47,0.00,,,0.00,TxWx,2013-02-19 17:34:00,
2013-02-19 12:39:00,45.0,25.0,29.80,NW,315,8.0,8.0,47,0.00,,,0.00,TxWx,2013-02-19 17:39:00,
2013-02-19 12:44:00,45.0,25.0,29.79,NNW,337,6.0,8.0,47,0.00,,,0.00,TxWx,2013-02-19 17:44:00,
2013-02-19 12:50:00,45.0,25.0,29.78,WNW,292,8.0,9.0,47,0.00,,,0.00,TxWx,2013-02-19 17:50:00,
2013-02-19 12:55:00,45.0,25.0,29.78,WNW,292,9.0,10.0,47,0.00,,,0.00,TxWx,2013-02-19 17:55:00,
2013-02-19 13:00:00,45.0,25.0,29.78,NW,315,6.0,8.0,48,0.00,,,0.00,TxWx,2013-02-19 18:00:00,
2013-02-19 13:05:00,45.0,25.0,29.78,NW,315,7.0,8.0,48,0.00,,,0.00,TxWx,2013-02-19 18:05:00,
2013-02-19 13:10:00,45.0,25.0,29.78,NW,315,6.0,7.0,48,0.00,,,0.00,TxWx,2013-02-19 18:10:00,
2013-02-19 13:15:00,45.0,25.0,29.77,NW,315,5.0,6.0,48,0.00,,,0.00,TxWx,2013-02-19 18:15:00,
2013-02-19 13:20:00,45.0,25.0,29.77,WNW,292,5.0,5.0,48,0.00,,,0.00,TxWx,2013-02-19 18:20:00,
2013-02-19 13:26:00,45.0,25.0,29.77,NNW,337,5.0,5.0,48,0.00,,,0.00,TxWx,2013-02-19 18:26:00,
2013-02-19 13:31:00,45.0,25.0,29.77,NW,315,8.0,9.0,48,0.00,,,0.00,TxWx,2013-02-19 18:31:00,
2013-02-19 13:36:00,45.0,26.0,29.77,NW,315,10.0,11.0,49,0.00,,,0.00,TxWx,2013-02-19 18:36:00,
2013-02-19 13:41:00,45.0,26.0,29.77,NNW,337,8.0,8.0,49,0.00,,,0.00,TxWx,2013-02-19 18:41:00,
2013-02-19 13:47:00,45.0,26.0,29.77,WNW,292,8.0,10.0,50,0.00,,,0.00,TxWx,2013-02-19 18:47:00,
2013-02-19 13:52:00,44.0,26.0,29.77,North,0,7.0,10.0,52,0.00,,,0.00,TxWx,2013-02-19 18:52:00,
2013-02-19 13:57:00,43.0,28.0,29.77,WNW,292,9.0,10.0,58,0.00,,,0.00,TxWx,2013-02-19 18:57:00,
2013-02-19 13:59:00,38.0,36.0,29.62,SE,135,5.0,7.0,92,0.00,,,0.11,TxWx,2013-02-19 18:59:00,
2013-02-19 14:00:00,38.0,36.0,29.61,South,180,5.0,7.0,92,0.00,,,0.00,TxWx,2013-02-19 19:00:00,
2013-02-19 14:01:00,38.0,36.0,29.61,South,180,3.0,3.0,92,0.00,,,0.00,TxWx,2013-02-19 19:01:00,
2013-02-19 14:02:00,42.0,29.0,29.77,WNW,292,6.0,7.0,62,0.00,,,0.00,TxWx,2013-02-19 19:02:00,
2013-02-19 14:03:00,38.0,36.0,29.61,SSW,202,3.0,5.0,92,0.00,,,0.00,TxWx,2013-02-19 19:03:00,
2013-02-19 14:04:00,38.0,36.0,29.62,SE,135,8.0,8.0,92,0.00,,,0.00,TxWx,2013-02-19 19:04:00,
2013-02-19 14:05:00,38.0,36.0,29.62,SE,135,6.0,6.0,92,0.00,,,0.00,TxWx,2013-02-19 19:05:00,
2013-02-19 14:06:00,38.0,36.0,29.62,SE,135,3.0,4.0,92,0.00,,,0.00,TxWx,2013-02-19 19:06:00,
2013-02-19 14:07:00,38.0,36.0,29.61,SE,135,6.0,6.0,92,0.00,,,0.00,TxWx,2013-02-19 19:07:00,
2013-02-19 14:08:00,41.0,29.0,29.77,North,0,6.0,8.0,64,0.00,,,0.00,TxWx,2013-02-19 19:08:00,
2013-02-19 14:09:00,38.0,36.0,29.61,SSE,157,2.0,3.0,92,0.00,,,0.00,TxWx,2013-02-19 19:09:00,
2013-02-19 14:10:00,38.0,36.0,29.61,ESE,112,5.0,6.0,92,0.00,,,0.00,TxWx,2013-02-19 19:10:00,
2013-02-19 14:11:00,38.0,36.0,29.61,South,180,3.0,3.0,92,0.00,,,0.00,TxWx,2013-02-19 19:11:00,
2013-02-19 14:12:00,38.0,36.0,29.61,SSW,202,3.0,5.0,92,0.00,,,0.00,TxWx,2013-02-19 19:12:00,
2013-02-19 14:13:00,41.0,30.0,29.76,NNW,337,5.0,6.0,66,0.00,,,0.00,TxWx,2013-02-19 19:13:00,
2013-02-19 14:14:00,38.0,36.0,29.61,SE,135,4.0,5.0,92,0.00,,,0.00,TxWx,2013-02-19 19:14:00,
2013-02-19 14:15:00,38.0,36.0,29.62,SE,135,3.0,3.0,92,0.00,,,0.00,TxWx,2013-02-19 19:15:00,
2013-02-19 14:16:00,38.0,36.0,29.62,ESE,112,3.0,4.0,92,0.00,,,0.00,TxWx,2013-02-19 19:16:00,
2013-02-19 14:17:00,38.0,36.0,29.61,SSE,157,2.0,2.0,92,0.00,,,0.00,TxWx,2013-02-19 19:17:00,
2013-02-19 14:18:00,40.0,29.0,29.76,NW,315,8.0,8.0,68,0.00,,,0.00,TxWx,2013-02-19 19:18:00,
2013-02-19 14:19:00,38.0,36.0,29.61,SSE,157,3.0,3.0,92,0.00,,,0.00,TxWx,2013-02-19 19:19:00,
2013-02-19 14:20:00,38.0,36.0,29.61,East,90,3.0,5.0,91,0.00,,,0.00,TxWx,2013-02-19 19:20:00,
2013-02-19 14:21:00,38.0,36.0,29.61,ESE,112,5.0,5.0,91,0.00,,,0.00,TxWx,2013-02-19 19:21:00,
2013-02-19 14:22:00,38.0,36.0,29.61,South,180,3.0,5.0,91,0.00,,,0.00,TxWx,2013-02-19 19:22:00,
2013-02-19 14:23:00,40.0,30.0,29.76,WNW,292,4.0,4.0,70,0.00,,,0.00,TxWx,2013-02-19 19:23:00,
2013-02-19 14:24:00,37.0,36.0,29.61,SE,135,6.0,6.0,91,0.00,,,0.00,TxWx,2013-02-19 19:24:00,
2013-02-19 14:25:00,37.0,35.0,29.61,SE,135,3.0,6.0,91,0.00,,,0.00,TxWx,2013-02-19 19:25:00,
2013-02-19 14:26:00,37.0,35.0,29.61,SSE,157,5.0,5.0,91,0.00,,,0.00,TxWx,2013-02-19 19:26:00,
2013-02-19 14:27:00,37.0,35.0,29.61,ESE,112,5.0,5.0,91,0.00,,,0.00,TxWx,2013-02-19 19:27:00,
2013-02-19 14:28:00,40.0,30.0,29.75,NW,315,5.0,6.0,71,0.00,,,0.00,TxWx,2013-02-19 19:28:00,
2013-02-19 14:29:00,37.0,35.0,29.61,SSE,157,6.0,6.0,91,0.00,,,0.00,TxWx,2013-02-19 19:29:00,
2013-02-19 14:31:00,37.0,34.0,29.61,South,180,5.0,5.0,91,0.00,,,0.00,TxWx,2013-02-19 19:31:00,
2013-02-19 14:33:00,40.0,31.0,29.75,WNW,292,6.0,7.0,72,0.00,,,0.00,TxWx,2013-02-19 19:33:00,
2013-02-19 14:34:00,37.0,34.0,29.61,SE,135,3.0,5.0,91,0.00,,,0.00,TxWx,2013-02-19 19:34:00,
2013-02-19 14:35:00,37.0,34.0,29.61,ESE,112,4.0,5.0,91,0.00,,,0.00,TxWx,2013-02-19 19:35:00,
2013-02-19 14:36:00,37.0,34.0,29.61,SSE,157,6.0,6.0,91,0.00,,,0.00,TxWx,2013-02-19 19:36:00,
2013-02-19 14:37:00,37.0,34.0,29.61,South,180,7.0,8.0,91,0.00,,,0.00,TxWx,2013-02-19 19:37:00,
2013-02-19 14:38:00,39.0,30.0,29.74,WNW,292,5.0,6.0,74,0.00,,,0.00,TxWx,2013-02-19 19:38:00,
2013-02-19 14:43:00,39.0,31.0,29.74,NW,315,5.0,6.0,75,0.00,,,0.00,TxWx,2013-02-19 19:43:00,
2013-02-19 14:45:00,37.0,34.0,29.61,SSE,157,4.0,5.0,91,0.00,,,0.00,TxWx,2013-02-19 19:45:00,
2013-02-19 14:47:00,37.0,34.0,29.61,South,180,6.0,6.0,91,0.00,,,0.00,TxWx,2013-02-19 19:47:00,
2013-02-19 14:48:00,37.0,34.0,29.61,SE,135,5.0,6.0,91,0.00,,,0.00,TxWx,2013-02-19 19:48:00,
2013-02-19 14:49:00,37.0,34.0,29.61,South,180,6.0,6.0,91,0.00,,,0.00,TxWx,2013-02-19 19:49:00,
2013-02-19 14:50:00,39.0,32.0,29.74,NW,315,4.0,5.0,76,0.00,,,0.00,TxWx,2013-02-19 19:50:00,
2013-02-19 14:55:00,39.0,32.0,29.74,WNW,292,6.0,6.0,77,0.00,,,0.00,TxWx,2013-02-19 19:55:00,
2013-02-19 14:57:00,37.0,34.0,29.61,South,180,2.0,4.0,91,0.00,,,0.00,TxWx,2013-02-19 19:57:00,
2013-02-19 14:59:00,37.0,34.0,29.61,SE,135,4.0,5.0,90,0.00,,,0.00,TxWx,2013-02-19 19:59:00,
2013-02-19 15:00:00,39.0,33.0,29.74,WNW,292,3.0,3.0,78,0.00,,,0.00,TxWx,2013-02-19 20:00:00,
2013-02-19 15:02:00,37.0,34.0,29.61,SSE,157,5.0,6.0,90,0.00,,,0.00,TxWx,2013-02-19 20:02:00,
2013-02-19 15:03:00,37.0,34.0,29.61,East,90,3.0,3.0,90,0.00,,,0.00,TxWx,2013-02-19 20:03:00,
2013-02-19 15:04:00,37.0,34.0,29.61,SE,135,5.0,6.0,90,0.00,,,0.00,TxWx,2013-02-19 20:04:00,
2013-02-19 15:05:00,37.0,34.0,29.61,SE,135,3.0,5.0,90,0.00,,,0.00,TxWx,2013-02-19 20:05:00,
2013-02-19 15:06:00,39.0,33.0,29.73,NW,315,3.0,5.0,79,0.00,,,0.00,TxWx,2013-02-19 20:06:00,
2013-02-19 15:11:00,39.0,33.0,29.73,NW,315,4.0,5.0,79,0.00,,,0.00,TxWx,2013-02-19 20:11:00,
2013-02-19 15:16:00,39.0,33.0,29.73,NW,315,3.0,3.0,80,0.00,,,0.00,TxWx,2013-02-19 20:16:00,
2013-02-19 15:21:00,39.0,33.0,29.72,NW,315,4.0,5.0,80,0.00,,,0.00,TxWx,2013-02-19 20:21:00,
2013-02-19 15:26:00,39.0,34.0,29.72,NNW,337,3.0,3.0,81,0.00,,,0.00,TxWx,2013-02-19 20:26:00,
2013-02-19 15:31:00,39.0,34.0,29.72,NW,315,5.0,5.0,81,0.00,,,0.00,TxWx,2013-02-19 20:31:00,
2013-02-19 15:36:00,39.0,34.0,29.71,North,0,5.0,5.0,81,0.00,,,0.00,TxWx,2013-02-19 20:36:00,
2013-02-19 15:42:00,39.0,34.0,29.71,NNW,337,6.0,6.0,82,0.00,,,0.00,TxWx,2013-02-19 20:42:00,
2013-02-19 15:47:00,39.0,34.0,29.71,North,0,2.0,3.0,82,0.00,,,0.00,TxWx,2013-02-19 20:47:00,
2013-02-19 15:52:00,39.0,34.0,29.70,NNW,337,5.0,8.0,83,0.00,,,0.00,TxWx,2013-02-19 20:52:00,
2013-02-19 15:57:00,39.0,34.0,29.70,NW,315,7.0,8.0,83,0.00,,,0.00,TxWx,2013-02-19 20:57:00,
2013-02-19 16:02:00,39.0,34.0,29.70,NNW,337,5.0,5.0,83,0.00,,,0.00,TxWx,2013-02-19 21:02:00,
2013-02-19 16:07:00,39.0,34.0,29.69,WNW,292,3.0,3.0,84,0.00,,,0.00,TxWx,2013-02-19 21:07:00,
2013-02-19 16:13:00,39.0,35.0,29.69,WNW,292,4.0,5.0,84,0.00,,,0.00,TxWx,2013-02-19 21:13:00,
2013-02-19 16:18:00,39.0,35.0,29.69,NNW,337,5.0,6.0,84,0.00,,,0.01,TxWx,2013-02-19 21:18:00,
2013-02-19 16:23:00,39.0,35.0,29.69,NW,315,3.0,3.0,85,0.60,,,0.01,TxWx,2013-02-19 21:23:00,
2013-02-19 16:28:00,39.0,35.0,29.69,NW,315,5.0,5.0,85,0.60,,,0.01,TxWx,2013-02-19 21:28:00,
2013-02-19 16:34:00,39.0,35.0,29.69,NW,315,4.0,4.0,85,0.00,,,0.01,TxWx,2013-02-19 21:34:00,
2013-02-19 16:39:00,39.0,35.0,29.69,NW,315,5.0,7.0,86,0.00,,,0.01,TxWx,2013-02-19 21:39:00,
2013-02-19 16:44:00,39.0,35.0,29.68,WNW,292,5.0,5.0,86,0.00,,,0.01,TxWx,2013-02-19 21:44:00,
2013-02-19 16:49:00,39.0,35.0,29.68,WNW,292,5.0,5.0,86,0.00,,,0.01,TxWx,2013-02-19 21:49:00,
2013-02-19 16:55:00,39.0,35.0,29.68,NW,315,5.0,6.0,86,0.00,,,0.02,TxWx,2013-02-19 21:55:00,
2013-02-19 17:00:00,39.0,35.0,29.67,WNW,292,5.0,5.0,86,0.60,,,0.02,TxWx,2013-02-19 22:00:00,
2013-02-19 17:05:00,39.0,35.0,29.67,WNW,292,7.0,8.0,87,0.60,,,0.02,TxWx,2013-02-19 22:05:00,
2013-02-19 17:10:00,39.0,35.0,29.67,WNW,292,4.0,5.0,87,0.00,,,0.02,TxWx,2013-02-19 22:10:00,
2013-02-19 17:16:00,39.0,35.0,29.67,WNW,292,4.0,5.0,87,0.00,,,0.02,TxWx,2013-02-19 22:16:00,
2013-02-19 17:21:00,39.0,35.0,29.67,WNW,292,6.0,8.0,87,0.60,,,0.03,TxWx,2013-02-19 22:21:00,
2013-02-19 17:26:00,39.0,35.0,29.67,NW,315,5.0,6.0,87,0.60,,,0.03,TxWx,2013-02-19 22:26:00,
2013-02-19 17:31:00,39.0,36.0,29.66,NW,315,8.0,9.0,88,0.00,,,0.03,TxWx,2013-02-19 22:31:00,
2013-02-19 17:36:00,39.0,36.0,29.66,WNW,292,5.0,6.0,88,0.00,,,0.03,TxWx,2013-02-19 22:36:00,
2013-02-19 17:42:00,39.0,36.0,29.66,NW,315,6.0,6.0,88,0.60,,,0.04,TxWx,2013-02-19 22:42:00,
2013-02-19 17:47:00,39.0,36.0,29.66,WNW,292,5.0,7.0,88,0.60,,,0.04,TxWx,2013-02-19 22:47:00,
2013-02-19 17:52:00,39.0,36.0,29.66,WNW,292,5.0,5.0,88,0.00,,,0.05,TxWx,2013-02-19 22:52:00,
2013-02-19 17:57:00,39.0,36.0,29.66,NW,315,4.0,6.0,89,0.00,,,0.05,TxWx,2013-02-19 22:57:00,
2013-02-19 18:02:00,39.0,36.0,29.66,NW,315,5.0,5.0,89,0.60,,,0.05,TxWx,2013-02-19 23:02:00,
2013-02-19 18:08:00,39.0,36.0,29.66,WNW,292,3.0,3.0,89,0.60,,,0.05,TxWx,2013-02-19 23:08:00,
2013-02-19 18:13:00,39.0,36.0,29.65,WNW,292,4.0,4.0,89,0.00,,,0.06,TxWx,2013-02-19 23:13:00,
2013-02-19 18:18:00,39.0,36.0,29.65,NW,315,6.0,7.0,89,0.00,,,0.06,TxWx,2013-02-19 23:18:00,
2013-02-19 18:23:00,39.0,36.0,29.65,WNW,292,4.0,5.0,89,0.60,,,0.06,TxWx,2013-02-19 23:23:00,
2013-02-19 18:28:00,39.0,36.0,29.65,WNW,292,2.0,3.0,89,0.60,,,0.07,TxWx,2013-02-19 23:28:00,
2013-02-19 18:34:00,39.0,36.0,29.65,WNW,292,3.0,4.0,90,0.60,,,0.07,TxWx,2013-02-19 23:34:00,
2013-02-19 18:39:00,39.0,36.0,29.64,West,270,3.0,3.0,90,0.60,,,0.07,TxWx,2013-02-19 23:39:00,
2013-02-19 18:44:00,39.0,36.0,29.64,West,270,3.0,5.0,90,0.00,,,0.08,TxWx,2013-02-19 23:44:00,
2013-02-19 18:50:00,39.0,36.0,29.64,WNW,292,3.0,3.0,90,0.00,,,0.08,TxWx,2013-02-19 23:50:00,
2013-02-19 18:54:00,39.0,36.0,29.64,WNW,292,6.0,8.0,90,0.60,,,0.08,TxWx,2013-02-19 23:54:00,
2013-02-19 19:00:00,39.0,36.0,29.64,WNW,292,7.0,7.0,90,0.00,,,0.08,TxWx,2013-02-20 00:00:00,
2013-02-19 19:05:00,39.0,36.0,29.63,WNW,292,5.0,5.0,90,0.00,,,0.09,TxWx,2013-02-20 00:05:00,
2013-02-19 19:10:00,39.0,36.0,29.63,NW,315,6.0,10.0,90,0.60,,,0.09,TxWx,2013-02-20 00:10:00,
2013-02-19 19:15:00,39.0,36.0,29.63,West,270,8.0,8.0,90,0.60,,,0.09,TxWx,2013-02-20 00:15:00,
2013-02-19 19:20:00,39.0,36.0,29.63,WNW,292,7.0,9.0,90,0.00,,,0.09,TxWx,2013-02-20 00:20:00,
2013-02-19 19:26:00,39.0,36.0,29.62,WNW,292,6.0,6.0,91,0.00,,,0.09,TxWx,2013-02-20 00:26:00,
2013-02-19 19:31:00,39.0,36.0,29.62,WNW,292,5.0,7.0,91,0.00,,,0.09,TxWx,2013-02-20 00:31:00,
2013-02-19 19:36:00,39.0,36.0,29.61,WNW,292,5.0,7.0,91,0.00,,,0.09,TxWx,2013-02-20 00:36:00,
2013-02-19 19:41:00,39.0,36.0,29.61,WNW,292,5.0,6.0,91,0.00,,,0.09,TxWx,2013-02-20 00:41:00,
2013-02-19 19:47:00,39.0,36.0,29.61,NNW,337,6.0,10.0,91,0.00,,,0.09,TxWx,2013-02-20 00:47:00,
2013-02-19 19:52:00,39.0,36.0,29.61,NW,315,6.0,6.0,91,0.00,,,0.09,TxWx,2013-02-20 00:52:00,
2013-02-19 19:57:00,39.0,37.0,29.61,NW,315,3.0,3.0,91,0.00,,,0.10,TxWx,2013-02-20 00:57:00,
2013-02-19 20:02:00,39.0,37.0,29.61,WNW,292,5.0,6.0,91,0.60,,,0.10,TxWx,2013-02-20 01:02:00,
2013-02-19 20:07:00,39.0,37.0,29.61,WNW,292,6.0,8.0,91,0.60,,,0.10,TxWx,2013-02-20 01:07:00,
2013-02-19 20:12:00,39.0,37.0,29.60,NW,315,5.0,6.0,91,0.00,,,0.10,TxWx,2013-02-20 01:12:00,
2013-02-19 20:17:00,39.0,37.0,29.60,WNW,292,6.0,6.0,91,0.00,,,0.10,TxWx,2013-02-20 01:17:00,
2013-02-19 20:23:00,39.0,37.0,29.60,NW,315,7.0,7.0,91,0.00,,,0.10,TxWx,2013-02-20 01:23:00,
2013-02-19 20:28:00,39.0,37.0,29.60,West,270,4.0,5.0,92,0.00,,,0.10,TxWx,2013-02-20 01:28:00,
2013-02-19 20:33:00,39.0,37.0,29.60,NW,315,8.0,8.0,92,0.00,,,0.10,TxWx,2013-02-20 01:33:00,
2013-02-19 20:38:00,39.0,37.0,29.60,NW,315,7.0,11.0,92,0.00,,,0.10,TxWx,2013-02-20 01:38:00,
2013-02-19 20:43:00,40.0,38.0,29.59,NW,315,6.0,7.0,92,0.00,,,0.10,TxWx,2013-02-20 01:43:00,
2013-02-19 20:48:00,40.0,38.0,29.58,NW,315,5.0,5.0,92,0.00,,,0.10,TxWx,2013-02-20 01:48:00,
2013-02-19 20:54:00,40.0,38.0,29.58,WNW,292,3.0,4.0,92,0.00,,,0.10,TxWx,2013-02-20 01:54:00,
2013-02-19 20:59:00,40.0,38.0,29.59,NW,315,4.0,5.0,92,0.00,,,0.10,TxWx,2013-02-20 01:59:00,
2013-02-19 21:04:00,40.0,38.0,29.58,West,270,5.0,6.0,92,0.00,,,0.10,TxWx,2013-02-20 02:04:00,
2013-02-19 21:09:00,40.0,38.0,29.58,NNW,337,3.0,3.0,92,0.00,,,0.10,TxWx,2013-02-20 02:09:00,
2013-02-19 21:14:00,40.0,38.0,29.58,WNW,292,3.0,3.0,92,0.00,,,0.10,TxWx,2013-02-20 02:14:00,
2013-02-19 21:19:00,39.0,37.0,29.58,WNW,292,3.0,3.0,92,0.00,,,0.10,TxWx,2013-02-20 02:19:00,
2013-02-19 21:24:00,39.0,37.0,29.59,NW,315,3.0,3.0,92,0.00,,,0.10,TxWx,2013-02-20 02:24:00,
2013-02-19 21:29:00,39.0,37.0,29.58,NW,315,4.0,4.0,92,0.00,,,0.10,TxWx,2013-02-20 02:29:00,
2013-02-19 21:34:00,39.0,37.0,29.58,NW,315,4.0,5.0,92,0.00,,,0.10,TxWx,2013-02-20 02:34:00,
2013-02-19 21:39:00,39.0,37.0,29.58,WNW,292,1.0,1.0,92,0.00,,,0.10,TxWx,2013-02-20 02:39:00,
2013-02-19 21:45:00,39.0,37.0,29.59,WSW,247,1.0,2.0,92,0.00,,,0.10,TxWx,2013-02-20 02:45:00,
2013-02-19 21:50:00,39.0,37.0,29.59,NW,315,5.0,5.0,92,0.00,,,0.10,TxWx,2013-02-20 02:50:00,
2013-02-19 21:55:00,39.0,37.0,29.59,WNW,292,4.0,4.0,93,0.00,,,0.10,TxWx,2013-02-20 02:55:00,
2013-02-19 22:01:00,39.0,37.0,29.59,NW,315,1.0,2.0,93,0.00,,,0.10,TxWx,2013-02-20 03:01:00,
2013-02-19 22:06:00,39.0,37.0,29.60,NW,315,3.0,3.0,93,0.00,,,0.10,TxWx,2013-02-20 03:06:00,
2013-02-19 22:11:00,39.0,37.0,29.59,WNW,292,3.0,5.0,93,0.00,,,0.10,TxWx,2013-02-20 03:11:00,
2013-02-19 22:16:00,39.0,37.0,29.59,NW,315,3.0,3.0,93,0.00,,,0.10,TxWx,2013-02-20 03:16:00,
2013-02-19 22:21:00,39.0,37.0,29.59,NW,315,4.0,5.0,93,0.00,,,0.10,TxWx,2013-02-20 03:21:00,
2013-02-19 22:26:00,39.0,37.0,29.59,NNW,337,1.0,1.0,93,0.00,,,0.10,TxWx,2013-02-20 03:26:00,
2013-02-19 22:31:00,39.0,37.0,29.58,WSW,247,1.0,1.0,93,0.00,,,0.10,TxWx,2013-02-20 03:31:00,
2013-02-19 22:36:00,39.0,37.0,29.58,WNW,292,2.0,2.0,93,0.00,,,0.10,TxWx,2013-02-20 03:36:00,
2013-02-19 22:42:00,39.0,37.0,29.58,West,270,3.0,3.0,93,0.60,,,0.11,TxWx,2013-02-20 03:42:00,
2013-02-19 22:47:00,39.0,37.0,29.58,WSW,247,2.0,2.0,93,0.60,,,0.11,TxWx,2013-02-20 03:47:00,
2013-02-19 22:52:00,39.0,37.0,29.57,ESE,112,3.0,3.0,93,0.00,,,0.11,TxWx,2013-02-20 03:52:00,
2013-02-19 22:57:00,39.0,37.0,29.58,West,270,2.0,3.0,93,0.00,,,0.11,TxWx,2013-02-20 03:57:00,
2013-02-19 23:03:00,39.0,37.0,29.58,NW,315,3.0,3.0,93,0.00,,,0.11,TxWx,2013-02-20 04:03:00,
2013-02-19 23:08:00,39.0,37.0,29.59,NW,315,3.0,3.0,93,0.00,,,0.11,TxWx,2013-02-20 04:08:00,
2013-02-19 23:13:00,39.0,37.0,29.58,NW,315,1.0,2.0,93,0.00,,,0.11,TxWx,2013-02-20 04:13:00,
2013-02-19 23:18:00,39.0,37.0,29.61,East,90,14.0,14.0,93,0.00,,,0.11,TxWx,2013-02-20 04:18:00,
2013-02-19 23:23:00,39.0,37.0,29.61,East,90,10.0,10.0,93,0.00,,,0.11,TxWx,2013-02-20 04:23:00,
2013-02-19 23:28:00,39.0,37.0,29.61,ESE,112,7.0,10.0,93,0.00,,,0.11,TxWx,2013-02-20 04:28:00,
2013-02-19 23:33:00,39.0,37.0,29.61,East,90,3.0,4.0,93,0.00,,,0.11,TxWx,2013-02-20 04:33:00,
2013-02-19 23:38:00,39.0,37.0,29.61,SE,135,6.0,6.0,93,0.00,,,0.11,TxWx,2013-02-20 04:38:00,
2013-02-19 23:44:00,39.0,37.0,29.61,SE,135,6.0,8.0,93,0.00,,,0.11,TxWx,2013-02-20 04:44:00,
2013-02-19 23:49:00,39.0,37.0,29.61,SE,135,8.0,8.0,93,0.00,,,0.11,TxWx,2013-02-20 04:49:00,
2013-02-19 23:54:00,38.0,36.0,29.61,SE,135,5.0,6.0,93,0.00,,,0.11,TxWx,2013-02-20 04:54:00,
2013-02-19 23:59:00,38.0,36.0,29.61,SE,135,7.0,10.0,92,0.00,,,0.11,TxWx,2013-02-20 04:59:00,